• In Hungary
  • List of Countries
  • For 7 days
  • Water Temperature
  • Satellite Maps
  • Weather Map
  • News
  • Weather Widgets
  • user-avatar
    Login

    Hourly Weather Amar

    Today, 22 August, Wednesday

    Time Temperature Precipitation Wind Pressure Humidity
    00:00 +36°C° 0 mm 2 mps 746 mmHg 43%
    01:00 +36°C° 0 mm 2 mps 746 mmHg 40%
    02:00 +36°C° 0 mm 2 mps 746 mmHg 38%
    03:00 +35°C° 0 mm 2 mps 746 mmHg 43%
    04:00 +35°C° 0 mm 2 mps 746 mmHg 41%
    05:00 +36°C° 0 mm 2 mps 746 mmHg 38%
    06:00 +36°C° 0 mm 3 mps 747 mmHg 35%
    07:00 +38°C° 0 mm 3 mps 747 mmHg 30%
    08:00 +41°C° 0 mm 4 mps 747 mmHg 26%
    09:00 +43°C° 0 mm 4 mps 747 mmHg 22%
    10:00 +45°C° 0 mm 5 mps 747 mmHg 22%
    11:00 +46°C° 0 mm 5 mps 747 mmHg 22%
    12:00 +47°C° 0 mm 6 mps 747 mmHg 23%
    13:00 +46°C° 0 mm 6 mps 746 mmHg 23%
    14:00 +46°C° 0 mm 6 mps 746 mmHg 24%
    15:00 +46°C° 0 mm 6 mps 746 mmHg 25%
    16:00 +44°C° 0 mm 6 mps 746 mmHg 29%
    17:00 +42°C° 0 mm 5 mps 746 mmHg 34%
    18:00 +40°C° 0 mm 5 mps 746 mmHg 38%
    19:00 +40°C° 0 mm 4 mps 746 mmHg 40%
    20:00 +38°C° 0 mm 3 mps 746 mmHg 42%
    21:00 +37°C° 0 mm 2 mps 747 mmHg 44%
    22:00 +35°C° 0 mm 1 mps 746 mmHg 43%
    23:00 +35°C° 0 mm 1 mps 746 mmHg 43%

    Tomorrow, 23 August, Thursday

    Time Temperature Precipitation Wind Pressure Humidity
    00:00 +32°C° 0 mm 0 mps 746 mmHg 43%
    01:00 +34°C° 0 mm 1 mps 746 mmHg 39%
    02:00 +36°C° 0 mm 2 mps 746 mmHg 36%
    03:00 +36°C° 0 mm 3 mps 745 mmHg 33%
    04:00 +36°C° 0 mm 3 mps 746 mmHg 32%
    05:00 +37°C° 0 mm 4 mps 746 mmHg 30%
    06:00 +37°C° 0 mm 5 mps 746 mmHg 28%
    07:00 +40°C° 0 mm 6 mps 747 mmHg 25%
    08:00 +42°C° 0 mm 6 mps 747 mmHg 23%
    09:00 +45°C° 0 mm 7 mps 747 mmHg 20%
    10:00 +46°C° 0 mm 7 mps 747 mmHg 20%
    11:00 +47°C° 0 mm 7 mps 747 mmHg 19%
    12:00 +47°C° 0 mm 7 mps 747 mmHg 19%
    13:00 +47°C° 0 mm 7 mps 746 mmHg 20%
    14:00 +47°C° 0 mm 7 mps 746 mmHg 21%
    15:00 +46°C° 0 mm 8 mps 746 mmHg 22%
    16:00 +45°C° 0 mm 7 mps 746 mmHg 25%
    17:00 +44°C° 0 mm 6 mps 746 mmHg 28%
    18:00 +41°C° 0 mm 5 mps 746 mmHg 31%
    19:00 +41°C° 0 mm 5 mps 746 mmHg 32%
    20:00 +40°C° 0 mm 4 mps 746 mmHg 33%
    21:00 +38°C° 0 mm 3 mps 747 mmHg 35%
    22:00 +38°C° 0 mm 3 mps 747 mmHg 34%
    23:00 +38°C° 0 mm 4 mps 746 mmHg 33%

    Day after tomorrow, 24 August, Friday

    Time Temperature Precipitation Wind Pressure Humidity
    00:00 +38°C° 0 mm 4 mps 746 mmHg 33%
    01:00 +39°C° 0 mm 5 mps 746 mmHg 37%
    02:00 +37°C° 0 mm 5 mps 746 mmHg 42%
    03:00 +38°C° 0 mm 6 mps 746 mmHg 47%
    04:00 +38°C° 0 mm 6 mps 746 mmHg 48%
    05:00 +38°C° 0 mm 6 mps 746 mmHg 48%
    06:00 +38°C° 0 mm 7 mps 746 mmHg 48%
    07:00 +40°C° 0 mm 7 mps 747 mmHg 41%
    08:00 +43°C° 0 mm 8 mps 747 mmHg 33%
    09:00 +45°C° 0 mm 9 mps 747 mmHg 25%
    10:00 +47°C° 0 mm 9 mps 747 mmHg 24%
    11:00 +48°C° 0 mm 9 mps 747 mmHg 22%
    12:00 +48°C° 0 mm 9 mps 747 mmHg 20%
    13:00 +48°C° 0 mm 9 mps 747 mmHg 21%
    14:00 +48°C° 0 mm 9 mps 746 mmHg 22%
    15:00 +47°C° 0 mm 9 mps 746 mmHg 23%
    16:00 +45°C° 0 mm 8 mps 746 mmHg 26%
    17:00 +44°C° 0 mm 7 mps 746 mmHg 29%
    18:00 +41°C° 0 mm 6 mps 746 mmHg 32%
    19:00 +40°C° 0 mm 5 mps 746 mmHg 34%
    20:00 +40°C° 0 mm 4 mps 746 mmHg 37%
    21:00 +38°C° 0 mm 3 mps 747 mmHg 40%
    22:00 +37°C° 0 mm 3 mps 746 mmHg 39%
    23:00 +37°C° 0 mm 3 mps 746 mmHg 39%

    25 August, Saturday

    Time Temperature Precipitation Wind Pressure Humidity
    00:00 +37°C° 0 mm 3 mps 746 mmHg 38%
    01:00 +37°C° 0 mm 4 mps 746 mmHg 38%
    02:00 +37°C° 0 mm 4 mps 745 mmHg 38%
    03:00 +37°C° 0 mm 4 mps 745 mmHg 39%
    04:00 +37°C° 0 mm 4 mps 745 mmHg 41%
    05:00 +37°C° 0 mm 4 mps 746 mmHg 44%
    06:00 +36°C° 0 mm 4 mps 746 mmHg 46%
    07:00 +38°C° 0 mm 4 mps 746 mmHg 40%
    08:00 +41°C° 0 mm 4 mps 746 mmHg 35%
    09:00 +43°C° 0 mm 5 mps 747 mmHg 29%
    10:00 +46°C° 0 mm 5 mps 746 mmHg 26%
    11:00 +47°C° 0 mm 5 mps 746 mmHg 23%
    12:00 +48°C° 0 mm 5 mps 746 mmHg 20%
    13:00 +47°C° 0 mm 6 mps 745 mmHg 21%
    14:00 +47°C° 0 mm 6 mps 745 mmHg 21%
    15:00 +47°C° 0 mm 7 mps 744 mmHg 22%
    16:00 +45°C° 0 mm 6 mps 744 mmHg 26%
    17:00 +44°C° 0 mm 6 mps 744 mmHg 29%
    18:00 +41°C° 0 mm 6 mps 745 mmHg 33%
    19:00 +40°C° 0 mm 5 mps 745 mmHg 35%
    20:00 +40°C° 0 mm 4 mps 745 mmHg 37%
    21:00 +38°C° 0 mm 3 mps 745 mmHg 39%
    22:00 +37°C° 0 mm 2 mps 745 mmHg 38%
    23:00 +36°C° 0 mm 1 mps 745 mmHg 37%

    26 August, Sunday

    Time Temperature Precipitation Wind Pressure Humidity
    00:00 +35°C° 0 mm 1 mps 744 mmHg 36%
    01:00 +35°C° 0 mm 1 mps 744 mmHg 35%
    02:00 +36°C° 0 mm 2 mps 744 mmHg 34%
    03:00 +36°C° 0 mm 3 mps 744 mmHg 34%
    04:00 +36°C° 0 mm 3 mps 744 mmHg 33%
    05:00 +36°C° 0 mm 3 mps 744 mmHg 32%
    06:00 +36°C° 0 mm 2 mps 745 mmHg 30%
    07:00 +38°C° 0 mm 2 mps 745 mmHg 26%
    08:00 +40°C° 0 mm 2 mps 745 mmHg 22%
    09:00 +42°C° 0 mm 2 mps 745 mmHg 18%
    10:00 +43°C° 0 mm 2 mps 745 mmHg 17%
    11:00 +45°C° 0 mm 2 mps 745 mmHg 16%
    12:00 +46°C° 0 mm 2 mps 744 mmHg 15%
    13:00 +46°C° 0 mm 2 mps 744 mmHg 15%
    14:00 +46°C° 0 mm 3 mps 743 mmHg 15%
    15:00 +48°C° 0 mm 4 mps 743 mmHg 15%
    16:00 +45°C° 0 mm 4 mps 743 mmHg 19%
    17:00 +43°C° 0 mm 5 mps 743 mmHg 23%
    18:00 +42°C° 0 mm 5 mps 743 mmHg 28%
    19:00 +41°C° 0 mm 5 mps 744 mmHg 32%
    20:00 +40°C° 0 mm 4 mps 744 mmHg 35%
    21:00 +38°C° 0 mm 4 mps 745 mmHg 39%
    22:00 +38°C° 0 mm 3 mps 744 mmHg 40%
    23:00 +37°C° 0 mm 3 mps 744 mmHg 41%

    27 August, Monday

    Time Temperature Precipitation Wind Pressure Humidity
    00:00 +37°C° 0 mm 2 mps 744 mmHg 42%
    01:00 +36°C° 0 mm 2 mps 744 mmHg 43%
    02:00 +36°C° 0 mm 2 mps 744 mmHg 44%
    03:00 +35°C° 0 mm 3 mps 744 mmHg 44%
    04:00 +35°C° 0 mm 3 mps 744 mmHg 47%
    05:00 +35°C° 0 mm 3 mps 745 mmHg 50%
    06:00 +35°C° 0 mm 3 mps 745 mmHg 53%
    07:00 +37°C° 0 mm 2 mps 746 mmHg 47%
    08:00 +38°C° 0 mm 2 mps 746 mmHg 42%
    09:00 +39°C° 0 mm 1 mps 746 mmHg 37%
    10:00 +41°C° 0 mm 2 mps 746 mmHg 33%
    11:00 +42°C° 0 mm 2 mps 746 mmHg 30%
    12:00 +44°C° 0 mm 3 mps 746 mmHg 26%
    13:00 +44°C° 0 mm 4 mps 745 mmHg 28%
    14:00 +45°C° 0 mm 5 mps 745 mmHg 29%
    15:00 +45°C° 0 mm 5 mps 744 mmHg 31%
    16:00 +43°C° 0 mm 5 mps 745 mmHg 35%
    17:00 +41°C° 0 mm 5 mps 745 mmHg 40%
    18:00 +40°C° 0 mm 5 mps 745 mmHg 44%
    19:00 +40°C° 0 mm 4 mps 745 mmHg 47%
    20:00 +38°C° 0 mm 4 mps 746 mmHg 49%
    21:00 +37°C° 0 mm 3 mps 746 mmHg 52%
    22:00 +37°C° 0 mm 3 mps 746 mmHg 52%
    23:00 +37°C° 0 mm 3 mps 745 mmHg 51%
    Show more